Location: *
(33.3200°N, 8.3381°W)
Time: 07:44:44
(UTC+00:00)

SL-24 R/B - Visible Passes

Search period start: 11 August 2020 00:00
Search period end: 21 August 2020 00:00
Orbit: 504 x 1004 km, 97.4° (Epoch: 10 August)

Date Brightness Start Highest point End Pass type
(mag) Time Alt. Az. Time Alt. Az. Time Alt. Az.
11 Aug 6.2 20:08:34 10° NNW 20:11:40 27° WNW 20:14:49 10° SW visible
13 Aug 7.0 20:28:00 10° NNW 20:30:12 15° WNW 20:32:27 10° WSW visible
14 Aug 4.8 19:46:41 10° N 19:50:15 51° WNW 19:53:57 10° SSW visible
16 Aug 6.1 20:05:40 10° NNW 20:08:51 28° WNW 20:12:10 10° SW visible
18 Aug 7.1 20:25:01 10° NNW 20:27:24 17° WNW 20:29:55 10° WSW visible
19 Aug 4.7 19:43:46 10° N 19:47:25 53° WNW 19:51:22 10° SSW visible
